"Pseudo-MPEC" for C0Z2J72

Created 2019 Sep 15 9:07:06 UT using Find_Orb

Click here for an explanation of pseudo-MPECs

 
 Astrometry: 
     C0Z2J72  C2019 09 07.36011 23 56 01.57 -11 53 23.9    ~979q 22.5 GVNEOCPG96
     C0Z2J72  C2019 09 07.36489 23 56 01.70 -11 53 34.7    ~979q 21.8 GVNEOCPG96
     C0Z2J72  C2019 09 07.36967 23 56 01.82 -11 53 45.0    ~979q 21.5 GVNEOCPG96
     C0Z2J72  C2019 09 07.37445 23 56 01.96 -11 53 54.8    ~979q 21.1 GVNEOCPG96

Station data:
(G96) Mt. Lemmon Survey  (N32.442754 W110.788720)  US/Arizona.  Observers T.
   A. Pruyne, B. M. Africano, E. J. Christensen, G. A. Farneth, D. C. Fuls,
   A. R. Gibbs, A. D. Grauer, H. Groeller, J. A. Johnson, R. A. Kowalski, S.
   M. Larson, G. J. Leonard, D. Rankin, R. L. Seaman, F. C. Shelly. 1.5-m
   reflector + 10K CCD.

Orbital elements:  C0Z2J72
   Perihelion 2019 Nov 19.971418 +/- 51.4 TT = 23:18:50 (JD 2458807.471418)
Epoch 2019 Sep  7.0 TT = JDT 2458733.5   Earth MOID: 0.3970   AutoNEOCP
M 342.03078191 +/- 21               (J2000 ecliptic)
n   0.24292109 +/- 0.248            Peri.  246.90331 +/- 70
a   2.54385621 +/- 1.73             Node   155.83890 +/- 50
e   0.4943181 +/- 0.255             Incl.   16.76181 +/- 9
P   4.06                   H 22.1   G  0.15   U 11.8  SR
q 1.28638192 +/- 0.392    Q 3.80133049 +/- 41.8
From 4 observations 2019 Sept. 7 (20.6 min); mean residual 0".18
Residuals in arcseconds: 
190907 G96  .01+  .25+    190907 G96  .10-  .25-    
190907 G96  .03+  .25-    190907 G96  .06+  .25+    

Ephemerides (geocentric):
Date (UTC) HH   RA              Dec         delta   r     elong  mag " sig PA
---- -- -- --  -------------   -----------  ------ ------ -----  --- ---- ---
2019 09 15 09  00 00 18.239   -16 58 08.68  .46269 1.4567 164.4 21.9  46d 179
2019 09 15 10  00 00 19.537   -16 59 47.88  .46254 1.4565 164.4 21.9  46d 179
2019 09 15 11  00 00 20.835   -17 01 27.11  .46239 1.4563 164.3 21.9  46d 179
2019 09 15 12  00 00 22.133   -17 03 06.36  .46224 1.4561 164.3 21.9  46d 179
2019 09 15 13  00 00 23.431   -17 04 45.65  .46209 1.4559 164.3 21.9  46d 178
2019 09 15 14  00 00 24.729   -17 06 24.96  .46194 1.4557 164.3 21.9  46d 178
2019 09 15 15  00 00 26.027   -17 08 04.30  .46179 1.4555 164.2 21.9  46d 178
2019 09 15 16  00 00 27.325   -17 09 43.66  .46164 1.4553 164.2 21.9  46d 178
2019 09 15 17  00 00 28.622   -17 11 23.06  .46149 1.4551 164.2 21.9  46d 178
2019 09 15 18  00 00 29.919   -17 13 02.48  .46134 1.4550 164.2 21.9  46d 178
2019 09 15 19  00 00 31.217   -17 14 41.92  .46120 1.4548 164.2 21.9  46d 178
2019 09 15 20  00 00 32.514   -17 16 21.40  .46105 1.4546 164.1 21.9  46d 178
2019 09 15 21  00 00 33.811   -17 18 00.90  .46090 1.4544 164.1 21.9  46d 178
2019 09 15 22  00 00 35.108   -17 19 40.42  .46075 1.4542 164.1 21.9  46d 178
2019 09 15 23  00 00 36.404   -17 21 19.97  .46061 1.4540 164.0 21.9  46d 178
2019 09 16 00  00 00 37.701   -17 22 59.55  .46046 1.4538 164.0 21.9  46d 178
2019 09 16 01  00 00 38.998   -17 24 39.15  .46032 1.4536 164.0 21.9  47d 178
2019 09 16 02  00 00 40.294   -17 26 18.78  .46017 1.4534 164.0 21.9  47d 178
2019 09 16 03  00 00 41.591   -17 27 58.43  .46003 1.4532 163.9 21.9  47d 178
2019 09 16 04  00 00 42.887   -17 29 38.10  .45988 1.4530 163.9 21.9  47d 178
2019 09 16 05  00 00 44.183   -17 31 17.80  .45974 1.4528 163.9 21.9  47d 177
2019 09 16 06  00 00 45.479   -17 32 57.52  .45960 1.4526 163.9 21.9  47d 177
2019 09 16 07  00 00 46.776   -17 34 37.27  .45945 1.4524 163.8 21.9  47d 177
2019 09 16 08  00 00 48.072   -17 36 17.04  .45931 1.4522 163.8 21.9  47d 177
2019 09 16 09  00 00 49.368   -17 37 56.84  .45917 1.4520 163.8 21.9  47d 177
2019 09 16 10  00 00 50.663   -17 39 36.65  .45902 1.4519 163.8 21.9  47d 177
2019 09 16 11  00 00 51.959   -17 41 16.49  .45888 1.4517 163.7 21.9  47d 177
2019 09 16 12  00 00 53.255   -17 42 56.36  .45874 1.4515 163.7 21.9  47d 177
2019 09 16 13  00 00 54.551   -17 44 36.24  .45860 1.4513 163.7 21.9  47d 177
2019 09 16 14  00 00 55.846   -17 46 16.15  .45846 1.4511 163.6 21.9  47d 177
2019 09 16 15  00 00 57.142   -17 47 56.08  .45832 1.4509 163.6 21.9  47d 177
2019 09 16 16  00 00 58.438   -17 49 36.03  .45818 1.4507 163.6 21.9  47d 177
2019 09 16 17  00 00 59.733   -17 51 16.00  .45804 1.4505 163.6 21.9  47d 177
2019 09 16 18  00 01 01.029   -17 52 55.99  .45790 1.4503 163.5 21.9  47d 177
2019 09 16 19  00 01 02.324   -17 54 36.01  .45776 1.4501 163.5 21.9  47d 177
2019 09 16 20  00 01 03.620   -17 56 16.04  .45762 1.4499 163.5 21.9  47d 177
2019 09 16 21  00 01 04.915   -17 57 56.09  .45748 1.4497 163.4 21.9  47d 177
2019 09 16 22  00 01 06.211   -17 59 36.17  .45735 1.4495 163.4 21.9  47d 177
2019 09 16 23  00 01 07.506   -18 01 16.26  .45721 1.4494 163.4 21.9  47d 177
2019 09 17 00  00 01 08.802   -18 02 56.38  .45707 1.4492 163.4 21.9  47d 177
2019 09 17 01  00 01 10.097   -18 04 36.51  .45693 1.4490 163.3 21.9  47d 177
2019 09 17 02  00 01 11.392   -18 06 16.66  .45680 1.4488 163.3 21.9  47d 177
2019 09 17 03  00 01 12.688   -18 07 56.84  .45666 1.4486 163.3 21.9  47d 177
2019 09 17 04  00 01 13.983   -18 09 37.03  .45653 1.4484 163.2 21.9  47d 177
2019 09 17 05  00 01 15.279   -18 11 17.23  .45639 1.4482 163.2 21.9  47d 177
2019 09 17 06  00 01 16.574   -18 12 57.46  .45626 1.4480 163.2 21.9  47d 177
2019 09 17 07  00 01 17.870   -18 14 37.71  .45612 1.4478 163.1 21.9  47d 177
2019 09 17 08  00 01 19.165   -18 16 17.97  .45599 1.4476 163.1 21.9  46d 174